Location: B?dimalle
(17.1788°N, 80.5377°E)
Time: 05:22:30
(UTC+00:00)

Tiangong - Visible Passes

Search period start: 12 October 2024 00:00
Search period end: 22 October 2024 00:00
Orbit: 372 x 377 km, 41.5° (Epoch: 11 October)

Date Brightness Start Highest point End Pass type
(mag) Time Alt. Az. Time Alt. Az. Time Alt. Az.
12 Oct 0.0 23:27:26 10° SSW 23:30:04 25° SE 23:32:43 10° ENE visible
14 Oct -1.7 00:00:31 10° WSW 00:03:29 43° NW 00:06:28 10° NE visible
14 Oct -1.1 23:01:00 45° E 23:01:00 45° E 23:03:25 10° ENE visible
15 Oct -0.7 23:33:39 21° NW 23:33:41 21° NW 23:36:09 10° NNE visible
